Location: DaVinci Observatory
(43.1080°N, 78.6453°W)
Time: 00:59:51
(UTC-05:00)

N. Korean satellite - Pass Details

Date: 11 October 2017
Orbit: 461 x 513 km, 97.2° (Epoch: 10 December)

Event Time Altitude Azimuth Distance (km) Brightness Sun altitude
Rises 19:02:00 0° 159° (SSE) 2,559 10.1 -5.2°
Reaches altitude 10° 19:04:05 10° 156° (SSE) 1,673 9.1 -5.6°
Maximum altitude 19:07:38 61° 76° (ENE) 552 6.6 -6.2°
Drops below altitude 10° 19:11:09 10° 355° (N) 1,657 9.3 -6.9°
Sets 19:13:13 0° 352° (N) 2,532 10.3 -7.2°
